星链-2440 (STARLINK-2440 )

导读 | 星芒AI

STARLINK-2440 是 SpaceX Starlink 项目中的一颗低轨通信卫星,属于第24批发射的星链卫星群。该卫星旨在为全球用户提供高速、低延迟的互联网服务,尤其服务于网络基础设施薄弱的地区。它运行在约550公里高的近地轨道,采用先进的推进系统和激光通信技术,以提升数据传输效率和卫星间通信能力。STARLINK-2440 的部署有助于完善星链星座,增强全球覆盖范围和网络稳定性。

基本信息
目录编号:
48105
目录名称:
STARLINK-2440
国际标识:
2021-027P
轨道中心:
EARTH
卫星名称:
星链-2440
卫星全名:
星链-2440 (STARLINK-2440 )
卫星状态:
在轨 (已飞行1716 天)
发射日期:
2021-04-07 UTC
国别 :
美国 (US)
星等 :
--
轨道信息
数据来源 国际轨道数据 AOE轨道数据
星历时间 2025-12-17T22:28:14+0800
12小时前
查看轨道信息
2025-12-15T11:00:00+0800
2天前
查看轨道信息
半长轴 6925.304km 6925.303km
偏心率 0.0001324 0.0001413
轨道倾角 53.057° 53.054°
近地点辐角 86.894° 78.593°
升交点赤经 110.118° 121.240°
平近点角 273.221° 156.090°
近地点 546.252km 546.189km
远地点 548.086km 548.147km
周期 95.591分钟 95.591分钟
每日圈数 15.064146 15.064149
详细信息
固有亮度:
5
最大亮度:
2.5
卫星平台:
Starlink V1.0
覆盖范围:
全球
运营商:
太空探索技术公司
运营商所在国:
美国
制造商(研发单位):
太空探索技术公司
制造商所在国:
美国
使用方式:
暂无
卫星简介
星链(Starlink)计划是由太空探索技术公司(SpaceX)提出的一个巨型低轨卫星互联网星座项目,计划在2019年至2024年间在太空搭建由约1.2万颗卫星组成的“星链”网络,其中1584颗将部署在地球上空550千米处的近地轨道,并从2020年开始工作。该卫星仍在工作。
2D轨道图
3D轨道图
轨道高度分析图
轨道倾角分析图
轨道综合分析图
查看轨道综合分析图